Location: Binningen
(47.7924°N, 8.7261°E)
Time: 17:35:24
(UTC+00:00)

Cosmos 1726 - Pass Details

Date: 17 May 2021
Orbit: 478 x 498 km, 82.5° (Epoch: 21 June)

Event Time Altitude Azimuth Distance (km) Brightness Sun altitude
Rises 22:51:43 0° 5° (N) 2,582 7.1 -22.3°
Reaches altitude 10° 22:54:29 10° 27° (NNE) 1,690 5.5 -22.4°
Maximum altitude 22:56:53 16° 68° (ENE) 1,336 4.4 -22.4°
Enters shadow 22:57:31 16° 81° (E) 1,362 4.3 -22.4°
